Time,TemperatureF,DewpointF,PressureIn,WindDirection,WindDirectionDegrees,WindSpeedMPH,WindSpeedGustMPH,Humidity,HourlyPrecipIn,Conditions,Clouds,dailyrainin,SoftwareType,DateUTC
2013-08-15 00:23:00,55.0,47.0,30.07,West,270,0.0,0.0,75,0.00,,,0.00,,2013-08-15 04:23:00,
2013-08-15 00:52:00,54.0,47.0,30.07,West,270,0.0,0.0,76,0.00,,,0.00,,2013-08-15 04:52:00,
2013-08-15 01:12:00,54.0,47.0,30.09,West,270,0.0,0.0,76,0.00,,,0.00,,2013-08-15 05:12:00,
2013-08-15 01:22:00,53.0,46.0,30.09,WSW,248,1.0,2.0,77,0.00,,,0.00,,2013-08-15 05:22:00,
2013-08-15 01:52:00,53.0,46.0,30.09,WNW,292,0.0,1.0,78,0.00,,,0.00,,2013-08-15 05:52:00,
2013-08-15 02:21:00,53.0,46.0,30.09,NW,315,0.0,0.0,78,0.00,,,0.00,,2013-08-15 06:21:00,
2013-08-15 02:52:00,52.0,46.0,30.09,WSW,248,0.0,1.0,79,0.00,,,0.00,,2013-08-15 06:52:00,
2013-08-15 03:21:00,51.0,45.0,30.10,WSW,248,1.0,2.0,79,0.00,,,0.00,,2013-08-15 07:21:00,
2013-08-15 03:52:00,51.0,45.0,30.10,WSW,248,1.0,2.0,80,0.00,,,0.00,,2013-08-15 07:52:00,
2013-08-15 04:11:00,51.0,45.0,30.11,WSW,248,1.0,1.0,80,0.00,,,0.00,,2013-08-15 08:11:00,
2013-08-15 04:21:00,50.0,44.0,30.10,WSW,248,1.0,1.0,80,0.00,,,0.00,,2013-08-15 08:21:00,
2013-08-15 04:52:00,50.0,44.0,30.11,WSW,248,0.0,2.0,81,0.00,,,0.00,,2013-08-15 08:52:00,
2013-08-15 05:21:00,50.0,45.0,30.11,West,270,0.0,1.0,82,0.00,,,0.00,,2013-08-15 09:21:00,
2013-08-15 05:53:00,50.0,45.0,30.11,NW,315,0.0,0.0,82,0.00,,,0.00,,2013-08-15 09:53:00,
2013-08-15 06:22:00,49.0,44.0,30.12,WSW,248,0.0,0.0,82,0.00,,,0.00,,2013-08-15 10:22:00,
2013-08-15 06:52:00,49.0,44.0,30.13,WSW,248,1.0,1.0,83,0.00,,,0.00,,2013-08-15 10:52:00,
2013-08-15 07:12:00,49.0,44.0,30.14,NW,315,1.0,1.0,83,0.00,,,0.00,,2013-08-15 11:12:00,
2013-08-15 07:22:00,49.0,44.0,30.14,NW,315,1.0,1.0,83,0.00,,,0.00,,2013-08-15 11:22:00,
2013-08-15 07:52:00,51.0,46.0,30.14,North,0,0.0,0.0,84,0.00,,,0.00,,2013-08-15 11:52:00,
2013-08-15 08:11:00,51.0,46.0,30.14,North,0,0.0,0.0,84,0.00,,,0.00,,2013-08-15 12:11:00,
2013-08-15 08:21:00,52.0,47.0,30.15,NNE,23,0.0,0.0,84,0.00,,,0.00,,2013-08-15 12:21:00,
2013-08-15 08:52:00,53.0,48.0,30.14,WSW,248,0.0,2.0,82,0.00,,,0.00,,2013-08-15 12:52:00,
2013-08-15 09:11:00,53.0,48.0,30.15,SW,226,0.0,2.0,82,0.00,,,0.00,,2013-08-15 13:11:00,
2013-08-15 09:21:00,54.0,48.0,30.16,WSW,242,0.0,2.0,81,0.00,,,0.00,,2013-08-15 13:21:00,
2013-08-15 09:52:00,56.0,50.0,30.16,SSW,204,1.0,5.0,80,0.00,,,0.00,,2013-08-15 13:52:00,
2013-08-15 10:22:00,58.0,50.0,30.16,WSW,248,3.0,6.0,76,0.00,,,0.00,,2013-08-15 14:22:00,
2013-08-15 10:56:00,59.0,51.0,30.16,SW,225,2.0,6.0,74,0.00,,,0.00,,2013-08-15 14:56:00,
2013-08-15 11:23:00,61.0,52.0,30.17,East,90,1.0,3.0,73,0.00,,,0.00,,2013-08-15 15:23:00,
2013-08-15 11:54:00,63.0,52.0,30.16,NW,315,2.0,5.0,68,0.00,,,0.00,,2013-08-15 15:54:00,
2013-08-15 12:15:00,64.0,53.0,30.16,SSE,158,1.0,2.0,67,0.00,,,0.00,,2013-08-15 16:15:00,
2013-08-15 12:26:00,65.0,53.0,30.16,NW,315,2.0,5.0,64,0.00,,,0.00,,2013-08-15 16:26:00,
2013-08-15 12:55:00,65.0,53.0,30.16,WNW,292,1.0,3.0,64,0.00,,,0.00,,2013-08-15 16:55:00,
2013-08-15 13:18:00,68.0,52.0,30.15,ESE,112,1.0,2.0,57,0.00,,,0.00,,2013-08-15 17:18:00,
2013-08-15 13:31:00,69.0,-99.9,30.15,ESE,113,2.0,8.0,54,0.00,,,0.00,,2013-08-15 17:31:00,
2013-08-15 13:55:00,69.0,53.0,30.15,NNW,339,2.0,7.0,56,0.00,,,0.00,,2013-08-15 17:55:00,
2013-08-15 14:00:00,-999.0,-99.9,30.15,NNW,339,2.0,7.0,-999,-99.99,,,-99.99,,2013-08-15 18:00:00,
2013-08-15 14:28:00,69.0,52.0,30.13,South,181,1.0,6.0,54,0.00,,,0.00,,2013-08-15 18:28:00,
2013-08-15 14:36:00,-999.0,-99.9,30.13,South,181,1.0,6.0,-999,0.00,,,0.00,,2013-08-15 18:36:00,
2013-08-15 15:07:00,-999.0,-99.9,30.12,North,4,2.0,6.0,-999,0.00,,,0.00,,2013-08-15 19:07:00,
2013-08-15 15:17:00,74.0,54.0,30.12,South,176,1.0,3.0,50,0.00,,,0.00,,2013-08-15 19:17:00,
2013-08-15 15:34:00,-999.0,-99.9,30.14,NW,315,3.0,7.0,-999,-99.99,,,-99.99,,2013-08-15 19:34:00,
2013-08-15 16:13:00,75.0,53.0,30.14,SE,133,1.0,3.0,46,0.00,,,0.00,,2013-08-15 20:13:00,
2013-08-15 17:04:00,77.0,52.0,30.17,WSW,248,2.0,7.0,42,0.00,,,0.00,,2013-08-15 21:04:00,
2013-08-15 17:40:00,78.0,52.0,30.15,ENE,75,2.0,6.0,41,0.00,,,0.00,,2013-08-15 21:40:00,
2013-08-15 17:57:00,76.0,51.0,30.15,SW,225,1.0,2.0,42,0.00,,,0.00,,2013-08-15 21:57:00,
2013-08-15 18:29:00,74.0,51.0,30.14,West,266,0.0,1.0,44,0.00,,,0.00,,2013-08-15 22:29:00,
2013-08-15 18:58:00,73.0,50.0,30.14,NW,326,1.0,2.0,45,0.00,,,0.00,,2013-08-15 22:58:00,
2013-08-15 19:35:00,-999.0,-99.9,30.07,West,263,0.0,2.0,51,0.00,,,0.00,,2013-08-15 23:35:00,
2013-08-15 19:55:00,68.0,52.0,30.09,WSW,248,0.0,1.0,57,0.00,,,0.00,,2013-08-15 23:55:00,
2013-08-15 20:12:00,68.0,54.0,30.09,WSW,248,0.0,1.0,60,0.00,,,0.00,,2013-08-16 00:12:00,
2013-08-15 20:24:00,66.0,54.0,30.10,WSW,248,1.0,2.0,65,0.00,,,0.00,,2013-08-16 00:24:00,
2013-08-15 20:46:00,65.0,53.0,30.10,WSW,248,1.0,2.0,66,0.00,,,0.00,,2013-08-16 00:46:00,
2013-08-15 20:52:00,64.0,53.0,30.12,WSW,248,1.0,2.0,67,0.00,,,0.00,,2013-08-16 00:52:00,
2013-08-15 21:26:00,63.0,52.0,30.11,SW,226,1.0,2.0,68,0.00,,,0.00,,2013-08-16 01:26:00,
2013-08-15 21:43:00,-999.0,-99.9,30.11,WSW,248,1.0,-999.0,-999,-99.99,,,-99.99,,2013-08-16 01:43:00,
2013-08-15 21:54:00,62.0,52.0,30.12,WSW,248,1.0,2.0,70,0.00,,,0.00,,2013-08-16 01:54:00,
2013-08-15 22:21:00,61.0,52.0,30.12,WSW,248,1.0,2.0,71,0.00,,,0.00,,2013-08-16 02:21:00,
2013-08-15 22:43:00,60.0,51.0,30.12,WSW,246,1.0,1.0,72,0.00,,,0.00,,2013-08-16 02:43:00,
2013-08-15 22:52:00,60.0,51.0,30.12,WNW,292,0.0,1.0,72,0.00,,,0.00,,2013-08-16 02:52:00,
2013-08-15 23:22:00,59.0,50.0,30.11,WNW,287,0.0,1.0,73,0.00,,,0.00,,2013-08-16 03:22:00,
2013-08-15 23:53:00,58.0,50.0,30.12,WNW,292,0.0,0.0,74,0.00,,,0.00,,2013-08-16 03:53:00,